Find Starlink 2314

NORAD ID: 47788 Int'l Des: 2021-018 Owner: SPXS Country: US Constellation: starlink operational
LEOCIRCULAR

現在のビュー

3D地球を読み込み中...

About Starlink 2314

Starlink 2314 (NORAD 47788) is a starlink constellation satellite (v1.0) launched Mar 11, 2021 by SPXS of US. It operates in LEO, CIRCULAR orbit with a mass of 260.00 kg.

Starlink 2314について

説明を読み込み中...

次回通過

Passes for default location (London). Set your location on the main map for personalized predictions.

高度履歴

Loading altitude history...

軌道要素

1 47788U 21018B 26167.13066208 .00043475 00000-0 10813-2 0 9992
2 47788 53.1563 119.1948 0005017 50.4511 309.6936 15.39873537292180
Epoch: Jun 16, 2026 • Age: 12 hours

現在のステータス

高度 467.6 km
速度 7.63 km/s
衛星直下点 -53.22°S, 110.54°W
打ち上げ日 Mar 11, 2021
運用期間 5.2 years
タイプ internet

技術仕様

分類 Payload
質量 260.00 kg
乾燥質量 248.00 kg
総質量 260.00 kg
長さ 0.20 m
直径 2.80 m
スパン 9.00 m
形状 Box + pan
製造者 SPXS
バスタイプ Starlink
フェーズステータス In Orbit
所有者/国 SPXS/US

Most Searched